Preview of NWS' New Version of Forecast
This preview is not operational and should not be used for support decisions.

Regional Weather Roundup (RWR)

Issued by National Weather Service (NWS)

                            
000
ASUS42 KTBW 180215
RWRFL 
FLORIDA REGIONAL WEATHER ROUNDUP
NATIONAL WEATHER SERVICE TAMPA BAY RUSKIN FL
1000 PM EDT WED APR 17 2019

NOTE: "FAIR" INDICATES FEW OR NO CLOUDS BELOW 12,000 FEET WITH NO
SIGNIFICANT WEATHER AND/OR OBSTRUCTIONS TO VISIBILITY.

FLZ001>010-012>015-112-114-115-180300-
PANHANDLE FLORIDA
  
CITY           SKY/WX    TMP DP  RH WIND       PRES   REMARKS
PENSACOLA      MOCLDY    70  70 100 SE9       30.02R                  
PENSACOLA NAS  MOCLDY    70  69  97 SE12      30.00R                  
MILTON NAS     MOCLDY    65  64  97 SE6       30.02R                  
CRESTVIEW      FAIR      68  65  90 S5        30.05R                  
DUKE FIELD     FAIR      68  67  98 SE3       30.03R                  
VALPARAISO     CLOUDY    70  67  92 SE8       30.02R                  
MARY ESTHER    MOCLDY    70  66  88 SE13      30.01R                  
PANAMA CITY    FAIR      68  63  84 E5        30.03R                  
TYNDALL AFB    FAIR      67  62  82 SE3       30.03S                  
APALACHICOLA   FAIR      64  61  90 CALM      30.04R                  

STATION/POSITION SKY/WX   TEMP    WIND        PRES    WAVE   SWELL
                          AIR SEA DIR/SP/G            HT/PER HT/PER
                          (F)     (DEG/KT/KT) (MB)    (FT/S) (FT/S)
30.1N   87.6W                                 1016.2R   2/ 5
29.2N   88.2W                     110/ 14/ 16 1015.6R   2/ 4
PANAMA CITY BEAC           70 72  140/ 10/ 11 1017.3R
TOWER C          NOT AVBL

$$
FLZ011-016>038-118-127-128-134-139-239-180300-
NORTH FLORIDA
  
CITY           SKY/WX    TMP DP  RH WIND       PRES   REMARKS
MARIANNA       FAIR      72  64  76 W5        30.04R                  
TALLAHASSEE    MOCLDY    65  59  81 CALM      30.04R                  
PERRY          FAIR      65  62  90 CALM      30.07R                  
LIVE OAK       MOCLDY    66  63  88 CALM      30.06R                  
CROSS CITY     MOCLDY    66  62  86 NE5       30.06R                  
LAKE CITY      FAIR      68  61  77 E6        30.08R                  
GAINESVILLE    FAIR      72  63  73 E3        30.10R                  
PALATKA        FAIR     N/A N/A N/A E3        30.09R                  
MAYPORT NAS    MOCLDY    72  65  78 E8        30.10R                  
JACKSONVILLE   MOCLDY    66  62  87 E6        30.09R                  
JAX NAS        MOCLDY    72  63  73 E7        30.10R                  
JAX CECIL      PTCLDY    70  64  83 E5        30.09R                  
FERNANDINA BEA FAIR      69  65  87 E7        30.10R                  
ST AUGUSTINE   FAIR      72  68  87 E3        30.10R                  
PALM COAST     FAIR      69  63  80 SE5       30.09R                  

STATION/POSITION SKY/WX   TEMP    WIND        PRES    WAVE   SWELL
                          AIR SEA DIR/SP/G            HT/PER HT/PER
                          (F)     (DEG/KT/KT) (MB)    (FT/S) (FT/S)
SHELL POINT      NOT AVBL
KEATON BEACH               67      20/  3/  3 1017.9R
CEDAR KEY                  72     350/  6/  7 1017.6R
FERNANDINA                 72 68  100/  4/  7 1019.9R
30.7N   81.3W                 69                N/A     2/ 9
MAYPORT                    72 68  120/  4/  6 1019.4R
31.4N   80.9W              69 68  110/  4/  6 1019.9R   2/ 9   2/ 9
ST AUGUSTINE               72 72  140/  6/  6 1019.1R

$$
FLZ040-043>046-052-053-057-058-063-144-180300-
INTERIOR CENTRAL FLORIDA
  
CITY           SKY/WX    TMP DP  RH WIND       PRES   REMARKS
OCALA          FAIR      74  60  61 E8        30.07R                  
LEESBURG       FAIR      73  60  63 SE10      30.08R                  
SANFORD        FAIR      70  62  76 E5        30.08R                  
ORLANDO EXEC   FAIR      71  61  70 SE7       30.07R                  
ORLANDO INTL   MOCLDY    72  61  68 SE7       30.07R                  
KISSIMMEE      FAIR      72  63  73 E9        30.08R                  
WINTER HAVEN   FAIR      73  62  68 E8        30.07R                  
LAKELAND       FAIR      72  59  64 E8        30.06R                  
BARTOW         FAIR      72  61  68 E6        30.06R                  
SEBRING        FAIR      71  61  72 E9        30.06R                  
OKEECHOBEE     FAIR      66  59  77 E3        30.06S                  

$$
FLZ041-047-054-059-064-141-147-180300-
EAST CENTRAL FLORIDA
  
CITY           SKY/WX    TMP DP  RH WIND       PRES   REMARKS
DAYTONA BEACH  MOCLDY    71  64  78 CALM      30.09R                  
DELAND         FAIR      70  61  73 CALM      30.09R                  
NEW SMYRNA BEA CLEAR     72  63  73 SE3       30.08R                  
JFK SPACE CTR  FAIR      71  62  72 SE3       30.07R                  
CAPE CANAVERAL FAIR      72  59  64 SE10      30.06S                  
PATRICK AFB    FAIR      74  62  66 E14       30.07R                  
MELBOURNE      FAIR      76  61  59 E13       30.07R                  
VERO BEACH     MOCLDY    75  63  66 E8        30.07R                  
FT PIERCE      MOCLDY    74  61  63 SE8       30.07R                  
STUART         FAIR      73  61  64 SE3       30.08R                  

STATION/POSITION SKY/WX   TEMP    WIND        PRES    WAVE   SWELL
                          AIR SEA DIR/SP/G            HT/PER HT/PER
                          (F)     (DEG/KT/KT) (MB)    (FT/S) (FT/S)
28.5N   80.2W              76     130/ 12/ 16 1018.7R   4/ 8   3/ 8
28.9N   78.5W              74 77  100/ 14/ 17 1019.6R   4/ 8   3/ 8
TRIDENT PIER               74 78  100/  7/ 13 1019.5R
28.4N   80.5W                 77                N/A     2/ 4
27.5N   80.2W                 76                N/A     3/ 8

$$
FLZ050-056-061-142-242-148-248-149-249-151-251-155-255-
160-260-180300-
WEST CENTRAL FLORIDA
  
CITY           SKY/WX    TMP DP  RH WIND       PRES   REMARKS
CRYSTAL RIVER  FAIR      70  64  83 CALM      30.06R                  
INVERNESS      FAIR      72  63  73 SE3       30.07R                  
BROOKSVILLE    FAIR      73  58  59 E8        30.06R                  
CLEARWATER AIR MOCLDY    72  63  73 CALM      30.04R                  
ST PETE CLEARW CLOUDY    73  64  73 NW3       30.04R                  
TAMPA INTL     MOCLDY    78  58  49 E12G18    30.05R                  
TAMPA EXEC     FAIR      70  59  68 CALM      30.06R                  
PLANT CITY     FAIR      73  61  64 E6        30.07R                  
MACDILL AFB    FAIR      76  59  56 SE14      30.03R                  
PETER O KNIGHT CLOUDY    77  61  57 E13G20    30.05R                  
ST PETERSBURG  FAIR      77  64  64 E17       30.03R                  
SARASOTA       FAIR      74  62  66 E6        30.01R                  
VENICE         FAIR      73  66  78 SE5       30.04R                  

STATION/POSITION SKY/WX   TEMP    WIND        PRES    WAVE   SWELL
                          AIR SEA DIR/SP/G            HT/PER HT/PER
                          (F)     (DEG/KT/KT) (MB)    (FT/S) (FT/S)
27.3N   84.2W                 76                N/A     2/ 6
CLEARWATER BEACH           75 78  360/  7/  8 1017.2R
MIDDLE TAMPA BAY           77     120/ 11/ 13 1017.1R
VENICE                     75 78  130/  3/  4 1016.9R

$$
FLZ066-069-070-075>078-162-262-165-265-180300-
SOUTHWEST FLORIDA AND KEYS
  
CITY           SKY/WX    TMP DP  RH WIND       PRES   REMARKS
PUNTA GORDA    FAIR      74  60  61 E12       30.04R                  
FT MYERS       MOCLDY    75  62  64 E10       30.03R                  
SOUTHWEST INTL CLOUDY    74  61  63 E7        30.04R                  
NAPLES         FAIR      77  64  64 E9        30.03R                  
MARCO ISLAND   MOCLDY    75  68  78 E6        30.05R                  
IMMOKALEE      CLOUDY    72  61  68 E7        30.02R                  
MARATHON       FAIR      79  66  64 E8        30.03R                  
KEY WEST NAS   FAIR      77  65  66 E14       30.03R                  
KEY WEST INTL  FAIR      77  65  66 E12G21    30.03R                  

STATION/POSITION SKY/WX   TEMP    WIND        PRES    WAVE   SWELL
                          AIR SEA DIR/SP/G            HT/PER HT/PER
                          (F)     (DEG/KT/KT) (MB)    (FT/S) (FT/S)
NAPLES                     77 81  100/  7/ 11 1017.0R
DRY TORTUGAS               77     110/ 16/ 17 1016.4R
SAND KEY                   76                 1016.5R
SOMBRERO KEY               77                 1016.1R

$$
FLZ067-068-071>074-168-172>174-180300-
SOUTHEAST FLORIDA 
  
CITY           SKY/WX    TMP DP  RH WIND       PRES   REMARKS
W PALM BEACH   FAIR      76  62  62 E8        30.07R                  
BOCA RATON     PTCLDY    75  61  60 SE8       30.06R                  
FT LAUDER-EXEC FAIR      75  61  61 E10       30.05R                  
FT LAUDERDALE  FAIR      76  61  59 E12       30.05R                  
POMPANO BEACH  FAIR      77  60  55 E12       30.06R                  
PEMBROKE PINES FAIR      74  61  63 E7        30.07R                  
OPA LOCKA      FAIR      74  62  66 E6        30.06R                  
MIAMI          FAIR      75  62  64 E7        30.06R                  
WEST KENDALL   FAIR      74  62  66 NE6       30.05R                  
HOMESTEAD      MOCLDY    74  65  74 NE6       30.04R                  

STATION/POSITION SKY/WX   TEMP    WIND        PRES    WAVE   SWELL
                          AIR SEA DIR/SP/G            HT/PER HT/PER
                          (F)     (DEG/KT/KT) (MB)    (FT/S) (FT/S)
PORT EVERGLADES            77      80/  8/ 15 1017.2
VIRGINIA KEY               77 81   50/  9/ 12 1016.9R
LAKE WORTH                 76 79  100/ 11/ 16 1019.1R
SETTLEMENT POINT           75      90/ 12/ 13 1018.6R

$$